Skip Page Navigation
NASA JPL Caltech
NASA Logo - Jet Propulsion Laboratory + View the NASA Portal
+ Center for Near-Earth Object Studies
JPL Home Earth Solar System Stars & Galaxies Technology
JPL Solar System Dynamics
BODIES ORBITS EPHEMERIDES TOOLS PHYSICAL DATA DISCOVERY FAQ SITE MAP
JPL Small-Body Database Browser
Search: [ help ]  
186624 (2003 FL96)
Classification: Main-belt Asteroid          SPK-ID: 2186624
Ephemeris | Orbit Diagram | Orbital Elements | Mission Design | Physical Parameters | Discovery Circumstances | Close-Approach Data ]

[ show orbit diagram ]
Orbital Elements at Epoch 2459396.5 (2021-Jul-01.0) TDB
Reference: JPL 22 (heliocentric ecliptic J2000)
 Element Value Uncertainty (1-sigma)   Units 
e .1765261504647468 4.8226e-08  
a 2.979642797874762 2.0559e-08 au
q 2.453657925005922 1.5149e-07 au
i 1.16890109628745 5.212e-06 deg
node 323.21335184 0.00023314 deg
peri 353.180270394378 0.00023428 deg
M 78.4937613073953 1.929e-05 deg
tp 2458986.883566528242
(2020-May-17.38356653)
0.00010276 TDB
period 1878.645048901993
5.14
1.9443e-05
5.323e-08
d
yr
n .1916274711981427 1.9833e-09 deg/d
Q 3.505627670743602 2.4188e-08 au
  Orbit Determination Parameters
   # obs. used (total)      529  
   data-arc span      7355 days (20.14 yr)  
   first obs. used      2000-10-26  
   last obs. used      2020-12-15  
   planetary ephem.      DE441  
   SB-pert. ephem.      SB441-N16  
   condition code      0  
   norm. resid. RMS      .52096  
   source      ORB  
   producer      Otto Matic  
   solution date      2021-Apr-13 21:52:02  

Additional Information
 Earth MOID = 1.4395 au 
 Jupiter MOID = 1.79193 au 
 T_jup = 3.236 
[ hide covariance matrix ]
Orbital Elements at Epoch 2457524.5 (2016-May-16.0) TDB
Reference: JPL 22 (heliocentric ecliptic J2000)
 Element Value Uncertainty (1-sigma)   Units 
e .1775057782066791 4.8635e-08  
q 2.450846409327687 1.5369e-07 au
tp 2457111.743723694957
(2015-Mar-30.24372370)
0.00011389 TDB
node 323.35176781148 0.00023335 deg
peri 353.7621825900558 0.00023448 deg
i 1.1681549087781 5.2136e-06 deg
  Orbit Determination Parameters
   # obs. used (total)      529  
   data-arc span      7355 days (20.14 yr)  
   first obs. used      2000-10-26  
   last obs. used      2020-12-15  
   planetary ephem.      DE441  
   SB-pert. ephem.      SB441-N16  
   condition code      0  
   norm. resid. RMS      .52096  
   source      ORB  
   producer      Otto Matic  
   solution date      2021-Apr-13 21:52:02  

Additional Information
 Jupiter MOID = 1.79193 au 
 T_jup = 3.236 
Orbit Covariance (6×6)
  e q tp node peri i
e 2.365378216876243E-15 -7.435672972427147E-15 3.928484446902452E-12 3.769808818130923E-14 7.608393746379282E-13 -4.558604813413281E-16
q -7.435672972427147E-15 2.36212118111894E-14 -1.303993544846801E-11 -1.220866931105117E-13 -2.52673969647058E-12 1.535654111274362E-15
tp 3.928484446902452E-12 -1.303993544846801E-11 1.297007773790013E-8 1.029486111839674E-10 2.651783719035067E-9 -7.873514778177733E-13
node 3.769808818130923E-14 -1.220866931105117E-13 1.029486111839674E-10 5.445289418257466E-8 -5.441959966900411E-8 7.377262407053282E-10
peri 7.608393746379282E-13 -2.52673969647058E-12 2.651783719035067E-9 -5.441959966900411E-8 5.498191273393107E-8 -7.377309260542068E-10
i -4.558604813413281E-16 1.535654111274362E-15 -7.873514778177733E-13 7.377262407053282E-10 -7.377309260542068E-10 2.718168514734026E-11

Ephemeris | Orbit Diagram | Orbital Elements | Mission Design | Physical Parameters | Discovery Circumstances | Close-Approach Data ]

Physical Parameter Table
Parameter Symbol Value Units Sigma Reference Notes
absolute magnitude H 16.02   n/a E2021B55  
diameter diameter 4.051 km 0.136 urn:nasa:pds:neowise_diameters_albedos::2.0[mainbelt] (http://adsabs.harvard.edu/abs/2011ApJ...741...68M)  
geometric albedo albedo 0.043   0.008 urn:nasa:pds:neowise_diameters_albedos::2.0[mainbelt] (http://adsabs.harvard.edu/abs/2011ApJ...741...68M)  

186624 (2003 FL96)          Discovered 2003-Mar-30 by Spacewatch at Kitt Peak
Reference: 20080520/Numbers.arcLast Updated: 2008-05-22

[ show close-approach data ]
Alternate Designations
 2003 FL96 = 2005 UB159 
Ephemeris | Orbit Diagram | Orbital Elements | Mission Design | Physical Parameters | Discovery Circumstances | Close-Approach Data ]
ABOUT SSD CREDITS/AWARDS PRIVACY/COPYRIGHT GLOSSARY LINKS
FirstGov 2021-Jul-31 03:52 UT
(server date/time)  
NASA Home Page
Site Manager:   Ryan S. Park
Webmaster  Alan B. Chamberlin